{"data":{"norad_id":57367,"epoch":"2026-09-20T00:16:30.963072Z","epoch_age_seconds":166378,"freshness":"FRESH","line1":"1 57367U 23099AR  26263.01146948  .00000043  00000+0  11082-4 0  9995","line2":"2 57367  43.0018 205.6555 0000786 246.0233 114.0537 15.27575646176884","mean_motion":15.27575646,"eccentricity":7.86e-5,"inclination_deg":43.0018,"raan_deg":205.6555,"arg_perigee_deg":246.0233,"mean_anomaly_deg":114.0537,"bstar":1.1082e-5,"rev_number":17688,"period_min":94.26701739915,"perigee_km":482.52284326107,"apogee_km":483.60142376486,"semimajor_km":6861.199133513,"source":"CELESTRAK","updated_at":"2026-09-21T09:00:33.604094Z"}}